Regional Weather Roundup
Issued by NWS

Home | Current Version | Previous Version | Text Only | Print | Product List | Glossary Off
Versions: 1 2 3 4 5 6 7 8 9 10 11 12 13 14 15 16 17 18 19 20 21 22 23 24 25 26 27 28 29 30 31 32 33 34 35 36 37 38 39 40 41 42 43 44 45 46 47 48 49 50

155
ASUS45 KSLC 221810
RWRUT

UTAH REGIONAL WEATHER ROUNDUP
NATIONAL WEATHER SERVICE SALT LAKE CITY UT
1200 PM MDT THU JUN 22 2017

UTZ001>011-023>025-221900-

NORTHERN UTAH

CITY           SKY/WX    TMP DP  RH WIND       PRES   REMARKS
BRIGHAM CITY   SUNNY     76  33  21 CALM      30.06S
HILL AFB       SUNNY     75  37  24 N6        30.09R
LOGAN          SUNNY     76  43  30 N8        30.07S
OGDEN          SUNNY     78  36  21 MISG      30.06S
SALT LAKE CITY SUNNY     81  36  19 NW14      30.05S
TOOELE VALLEY  SUNNY     77  41  27 N13G20    30.09R
WENDOVER         N/A     82  29  14 E6        30.07S
HEBER CITY     SUNNY     81  36  19 CALM      30.07S
WEST JORDAN    SUNNY     78  47  33 N15       30.09R

$$

UTZ011>015-024>027-221900-

CENTRAL/NORTHEAST UTAH

CITY           SKY/WX    TMP DP  RH WIND       PRES   REMARKS
PROVO AIRPORT  SUNNY     81  43  26 NW18      30.07R
MOAB/CANYONLAN SUNNY     96  31  10 W7        29.88F HX  90
DELTA          SUNNY     82  27  13 NW8       30.07R
PRICE          SUNNY     89  38  16 NW15G26   30.03R
ROOSEVELT      SUNNY     88  37  16 CALM      29.96F
VERNAL         SUNNY     89  43  20 NE5       29.95F

$$

UTZ013>016-019>022-027-221900-

SOUTHERN UTAH

CITY           SKY/WX    TMP DP  RH WIND       PRES   REMARKS
BRYCE CANYON   PTSUNNY   83  29  14 W14       30.22S
CEDAR CITY     SUNNY     85  38  18 NE8       30.08F
MILFORD        SUNNY     87  25  10 NE16G25   30.07S
ST GEORGE      CLEAR     98  31   9 S3        29.84F HX  92
HANKSVILLE     SUNNY     97  32  10 SW6G16    29.91F HX  91
BLANDING       SUNNY     90  33  13 S9        30.10F

$$

REGIONAL REPORTS     COLORADO/ARIZONA

CITY           SKY/WX    TMP DP  RH WIND       PRES   REMARKS
CRAIG, CO      SUNNY     84  42  22 VRB6      30.03F
GRAND JUNCTION SUNNY     89  38  16 S6        29.91F
RIFLE, CO      SUNNY     86  38  18 VRB6      29.97F
MONTROSE, CO   SUNNY     86  48  26 NW8       30.00F
CORTEZ, CO     SUNNY     90  25   9 VRB5      30.05S
COLORADO CITY    N/A     97  30   9 NW9       30.03S HX  91
PAGE, AZ       SUNNY     99  27   8 VRB5      29.92F HX  92
GRAND CANYON   SUNNY     89  23   9 W10G20    30.18R
KINGMAN, AZ    SUNNY    101  33   9 SW15      29.91S HX  95
FLAGSTAFF, AZ  SUNNY     87  28  12 W17G28    30.20S

$$

REGIONAL REPORTS    NEVADA/IDAHO/WYOMING

CITY           SKY/WX    TMP DP  RH WIND       PRES   REMARKS
LAS VEGAS, NV  SUNNY    105  19   4 VRB3      29.78S HX  97
ELY, NY        SUNNY     81  36  19 N13       30.17S
ELKO, NV       SUNNY     77  32  19 S6        30.15F
POCATELLO, ID  SUNNY     70  41  34 VRB3      30.11F
BURLEY, ID     SUNNY     70  37  29 W12G20    30.12S
FORT BRIDGER,    N/A     78  27  15 NW17G23   30.18S
EVANSTON, WY   SUNNY     73  32  22 SW17G23   30.17S
ROCK SPRINGS,  SUNNY     75  29  18 W12G23    30.09F
KEMMERER, WY     N/A     68  34  28 NW17      30.18S

$$




USA.gov is the U.S. government's official web portal to all federal, state and local government web resources and services.